• In Uzbekistan
  • List of Countries
  • For 7 days
  • Water Temperature
  • Satellite Maps
  • Weather Map
  • Weather Widgets
  • user-avatar
    Login

    Hourly Weather Gyor

    Today, 22 June, Friday

    Time Temperature Precipitation Wind Pressure Humidity
    00:00 +20°C° 0.6 mm 6 mps 749 mmHg 84%
    01:00 +18°C° 0.6 mm 7 mps 749 mmHg 86%
    02:00 +17°C° 0.1 mm 7 mps 750 mmHg 84%
    03:00 +16°C° 0.1 mm 7 mps 750 mmHg 83%
    04:00 +15°C° 0.1 mm 7 mps 751 mmHg 81%
    05:00 +14°C° 0.3 mm 7 mps 751 mmHg 82%
    06:00 +13°C° 0.3 mm 6 mps 752 mmHg 82%
    07:00 +13°C° 0.3 mm 6 mps 752 mmHg 82%
    08:00 +13°C° 0.2 mm 6 mps 753 mmHg 80%
    09:00 +13°C° 0.2 mm 5 mps 753 mmHg 79%
    10:00 +13°C° 0.2 mm 5 mps 754 mmHg 77%
    11:00 +13°C° 0.1 mm 5 mps 754 mmHg 74%
    12:00 +14°C° 0.1 mm 5 mps 754 mmHg 70%
    13:00 +15°C° 0.1 mm 4 mps 754 mmHg 67%
    14:00 +16°C° 0 mm 5 mps 754 mmHg 62%
    15:00 +17°C° 0 mm 5 mps 754 mmHg 56%
    16:00 +19°C° 0 mm 6 mps 754 mmHg 51%
    17:00 +17°C° 0 mm 6 mps 754 mmHg 56%
    18:00 +16°C° 0 mm 5 mps 754 mmHg 60%
    19:00 +15°C° 0 mm 5 mps 754 mmHg 65%
    20:00 +13°C° 0 mm 5 mps 754 mmHg 67%
    21:00 +12°C° 0 mm 4 mps 755 mmHg 70%
    22:00 +11°C° 0 mm 4 mps 755 mmHg 72%
    23:00 +11°C° 0 mm 4 mps 755 mmHg 74%

    Tomorrow, 23 June, Saturday

    Time Temperature Precipitation Wind Pressure Humidity
    00:00 +11°C° 0 mm 4 mps 755 mmHg 76%
    01:00 +10°C° 0 mm 4 mps 755 mmHg 78%
    02:00 +10°C° 0 mm 4 mps 755 mmHg 80%
    03:00 +10°C° 0 mm 4 mps 755 mmHg 81%
    04:00 +10°C° 0 mm 4 mps 755 mmHg 83%
    05:00 +11°C° 0 mm 4 mps 755 mmHg 79%
    06:00 +12°C° 0 mm 5 mps 755 mmHg 75%
    07:00 +14°C° 0 mm 6 mps 755 mmHg 71%
    08:00 +15°C° 0 mm 6 mps 755 mmHg 67%
    09:00 +16°C° 0 mm 7 mps 755 mmHg 62%
    10:00 +17°C° 0 mm 7 mps 755 mmHg 57%
    11:00 +18°C° 0.1 mm 7 mps 755 mmHg 55%
    12:00 +18°C° 0.1 mm 7 mps 754 mmHg 53%
    13:00 +20°C° 0.1 mm 7 mps 754 mmHg 51%
    14:00 +20°C° 0 mm 7 mps 754 mmHg 50%
    15:00 +20°C° 0 mm 7 mps 754 mmHg 50%
    16:00 +20°C° 0 mm 7 mps 753 mmHg 49%
    17:00 +19°C° 0 mm 6 mps 753 mmHg 54%
    18:00 +18°C° 0 mm 4 mps 754 mmHg 59%
    19:00 +17°C° 0 mm 3 mps 754 mmHg 64%
    20:00 +16°C° 0 mm 3 mps 754 mmHg 67%
    21:00 +14°C° 0 mm 4 mps 755 mmHg 69%
    22:00 +13°C° 0 mm 4 mps 755 mmHg 72%
    23:00 +12°C° 0 mm 4 mps 755 mmHg 76%

    Day after tomorrow, 24 June, Sunday

    Time Temperature Precipitation Wind Pressure Humidity
    00:00 +11°C° 0 mm 3 mps 755 mmHg 80%
    01:00 +11°C° 0 mm 3 mps 755 mmHg 84%
    02:00 +10°C° 0 mm 3 mps 755 mmHg 85%
    03:00 +10°C° 0 mm 3 mps 755 mmHg 86%
    04:00 +10°C° 0 mm 3 mps 755 mmHg 88%
    05:00 +11°C° 0 mm 4 mps 755 mmHg 82%
    06:00 +12°C° 0 mm 4 mps 755 mmHg 77%
    07:00 +14°C° 0 mm 5 mps 755 mmHg 72%
    08:00 +15°C° 0 mm 5 mps 755 mmHg 68%
    09:00 +16°C° 0 mm 5 mps 755 mmHg 64%
    10:00 +17°C° 0 mm 5 mps 755 mmHg 60%
    11:00 +19°C° 0.1 mm 5 mps 754 mmHg 58%
    12:00 +19°C° 0.1 mm 5 mps 754 mmHg 57%
    13:00 +20°C° 0.1 mm 5 mps 754 mmHg 56%
    14:00 +20°C° 0 mm 5 mps 754 mmHg 55%
    15:00 +20°C° 0 mm 5 mps 754 mmHg 55%
    16:00 +20°C° 0 mm 5 mps 753 mmHg 54%
    17:00 +19°C° 0 mm 4 mps 753 mmHg 60%
    18:00 +18°C° 0 mm 4 mps 753 mmHg 66%
    19:00 +17°C° 0 mm 3 mps 753 mmHg 71%
    20:00 +16°C° 0 mm 3 mps 754 mmHg 76%
    21:00 +14°C° 0 mm 2 mps 754 mmHg 81%
    22:00 +13°C° 0 mm 2 mps 754 mmHg 85%
    23:00 +13°C° 0 mm 2 mps 754 mmHg 87%

    25 June, Monday

    Time Temperature Precipitation Wind Pressure Humidity
    00:00 +12°C° 0 mm 2 mps 754 mmHg 88%
    01:00 +12°C° 0 mm 2 mps 754 mmHg 89%
    02:00 +12°C° 0 mm 2 mps 754 mmHg 90%
    03:00 +10°C° 0 mm 2 mps 754 mmHg 90%
    04:00 +10°C° 0 mm 2 mps 754 mmHg 91%
    05:00 +12°C° 0 mm 3 mps 754 mmHg 85%
    06:00 +13°C° 0 mm 3 mps 754 mmHg 79%
    07:00 +16°C° 0 mm 3 mps 755 mmHg 74%
    08:00 +18°C° 0 mm 3 mps 755 mmHg 69%
    09:00 +19°C° 0 mm 3 mps 754 mmHg 63%
    10:00 +21°C° 0 mm 3 mps 754 mmHg 58%
    11:00 +21°C° 0.2 mm 3 mps 754 mmHg 55%
    12:00 +22°C° 0.2 mm 3 mps 754 mmHg 52%
    13:00 +24°C° 0.2 mm 3 mps 754 mmHg 49%
    14:00 +24°C° 0.1 mm 3 mps 754 mmHg 49%
    15:00 +24°C° 0.1 mm 3 mps 754 mmHg 49%
    16:00 +24°C° 0.1 mm 3 mps 754 mmHg 49%
    17:00 +23°C° 0 mm 2 mps 754 mmHg 54%
    18:00 +21°C° 0 mm 2 mps 754 mmHg 60%
    19:00 +20°C° 0 mm 2 mps 754 mmHg 66%
    20:00 +19°C° 0 mm 1 mps 754 mmHg 71%
    21:00 +18°C° 0 mm 1 mps 755 mmHg 76%
    22:00 +16°C° 0 mm 1 mps 755 mmHg 80%
    23:00 +15°C° 0 mm 2 mps 755 mmHg 83%

    26 June, Tuesday

    Time Temperature Precipitation Wind Pressure Humidity
    00:00 +14°C° 0 mm 2 mps 755 mmHg 86%
    01:00 +14°C° 0 mm 2 mps 755 mmHg 89%
    02:00 +14°C° 0 mm 2 mps 755 mmHg 90%
    03:00 +13°C° 0 mm 2 mps 755 mmHg 91%
    04:00 +13°C° 0 mm 2 mps 755 mmHg 92%
    05:00 +14°C° 0 mm 2 mps 755 mmHg 87%
    06:00 +16°C° 0 mm 3 mps 755 mmHg 82%
    07:00 +17°C° 0 mm 3 mps 755 mmHg 76%
    08:00 +19°C° 0 mm 3 mps 755 mmHg 69%
    09:00 +21°C° 0 mm 3 mps 755 mmHg 62%
    10:00 +24°C° 0 mm 3 mps 755 mmHg 55%
    11:00 +25°C° 0 mm 3 mps 754 mmHg 51%
    12:00 +26°C° 0 mm 3 mps 754 mmHg 48%
    13:00 +26°C° 0 mm 3 mps 754 mmHg 44%
    14:00 +27°C° 0 mm 3 mps 753 mmHg 45%
    15:00 +27°C° 0 mm 3 mps 753 mmHg 46%
    16:00 +27°C° 0 mm 4 mps 753 mmHg 46%
    17:00 +25°C° 0 mm 3 mps 753 mmHg 53%
    18:00 +24°C° 0 mm 3 mps 753 mmHg 59%
    19:00 +22°C° 0 mm 3 mps 753 mmHg 66%
    20:00 +20°C° 0 mm 3 mps 753 mmHg 69%
    21:00 +19°C° 0 mm 3 mps 754 mmHg 72%
    22:00 +18°C° 0 mm 3 mps 754 mmHg 75%
    23:00 +17°C° 0 mm 3 mps 754 mmHg 76%

    27 June, Wednesday

    Time Temperature Precipitation Wind Pressure Humidity
    00:00 +16°C° 0 mm 3 mps 754 mmHg 78%
    01:00 +16°C° 0 mm 2 mps 754 mmHg 80%
    02:00 +15°C° 0 mm 2 mps 754 mmHg 81%
    03:00 +14°C° 0 mm 3 mps 754 mmHg 83%
    04:00 +13°C° 0 mm 3 mps 754 mmHg 84%
    05:00 +16°C° 0 mm 3 mps 754 mmHg 80%
    06:00 +17°C° 0 mm 3 mps 754 mmHg 75%
    07:00 +18°C° 0 mm 4 mps 754 mmHg 71%
    08:00 +20°C° 0 mm 4 mps 753 mmHg 65%
    09:00 +22°C° 0 mm 5 mps 753 mmHg 60%
    10:00 +24°C° 0 mm 6 mps 753 mmHg 54%
    11:00 +24°C° 0 mm 6 mps 753 mmHg 52%
    12:00 +26°C° 0 mm 6 mps 752 mmHg 50%
    13:00 +27°C° 0 mm 6 mps 752 mmHg 48%
    14:00 +27°C° 0 mm 6 mps 752 mmHg 49%
    15:00 +27°C° 0 mm 6 mps 751 mmHg 51%
    16:00 +26°C° 0 mm 7 mps 751 mmHg 52%
    17:00 +24°C° 0 mm 6 mps 751 mmHg 57%
    18:00 +23°C° 0 mm 5 mps 751 mmHg 61%
    19:00 +22°C° 0 mm 4 mps 752 mmHg 66%
    20:00 +21°C° 0 mm 4 mps 752 mmHg 67%
    21:00 +20°C° 0 mm 4 mps 752 mmHg 68%
    22:00 +18°C° 0 mm 4 mps 752 mmHg 69%
    23:00 +18°C° 0 mm 4 mps 752 mmHg 72%
    Show more